Ortonville, MN

3:10 AM CST on December 10, 2016 (GMT -0600)
Ortonville Municipal-Martinson

Weather History for KVVV - May, 2014

Change the Weather History Date:

Saturday, May 17, 2014

  Actual Average (KAQP) Record (KAQP)
Temperature  
Mean Temperature 53 °F -  
Max Temperature 69 °F 65 °F 93 °F (2012)
Min Temperature 37 °F 43 °F 30 °F (2002)
Degree Days  
Heating Degree Days 12    
Growing Degree Days 3 (Base 50)    
Moisture  
Dew Point 27 °F    
Average Humidity 38    
Maximum Humidity 65    
Minimum Humidity 14    
Precipitation  
Precipitation 0.00 in - - ()
Sea Level Pressure  
Sea Level Pressure 30.01 in    
Wind  
Wind Speed 5 mph (WSW)    
Max Wind Speed 13 mph    
Max Gust Speed -    
Visibility 10 miles    
Events      
Averages and records for this station are not official NWS values.
T = Trace of Precipitation, MM = Missing Value Source: NWS Daily Summary

Daily Weather History Graph

Daily Weather History Graph

Search for Another Location

Airport or City:

Trip Planner

Search our weather history database for the weather conditions in past years. The results will help you decide how hot, cold, wet, or windy it might be!

Date:

Astronomy

May. 17, 2014 Rise Set
Actual Time 5:53 AM CDT 8:51 PM CDT
Civil Twilight 5:18 AM CDT 9:26 PM CDT
Nautical Twilight 4:34 AM CDT 10:10 PM CDT
Astronomical Twilight 3:41 AM CDT 11:04 PM CDT
Moon 11:51 PM CDT (5/17) 8:38 AM CDT (5/17)
Length of Visible Light 16h 07m
Length of Day
14h 57m
Waning Gibbous, 89% of the Moon is Illuminated
May 17
Waning Gibbous
May 21
Last Quarter
May 28
New
Jun 5
First Quarter
Jun 12
Full

Hourly Weather History & Observations

Time (CDT) Temp. Windchill Dew Point Humidity Pressure Visibility Wind Dir Wind Speed Gust Speed Precip Events Conditions
12:13 AM 42.8 °F 40.1 °F 26.6 °F 53% 30.07 in 10.0 mi SSW 4.6 mph - N/A   Scattered Clouds
12:34 AM 42.8 °F 39.3 °F 26.6 °F 53% 30.06 in 10.0 mi SSW 5.8 mph - N/A   Scattered Clouds
12:54 AM 42.8 °F 40.1 °F 26.6 °F 53% 30.06 in 10.0 mi SSW 4.6 mph - N/A   Scattered Clouds
1:13 AM 41.0 °F 38.0 °F 26.6 °F 57% 30.06 in 10.0 mi SSW 4.6 mph - N/A   Clear
1:34 AM 41.0 °F 38.0 °F 26.6 °F 57% 30.06 in 10.0 mi South 4.6 mph - N/A   Clear
1:54 AM 41.0 °F 37.1 °F 26.6 °F 57% 30.05 in 10.0 mi South 5.8 mph - N/A   Clear
2:13 AM 41.0 °F 36.4 °F 26.6 °F 57% 30.05 in 10.0 mi South 6.9 mph - N/A   Clear
2:34 AM 39.2 °F 34.2 °F 26.6 °F 61% 30.05 in 10.0 mi South 6.9 mph - N/A   Clear
2:54 AM 39.2 °F 37.0 °F 26.6 °F 61% 30.05 in 10.0 mi South 3.5 mph - N/A   Clear
3:13 AM 37.4 °F 33.8 °F 26.6 °F 65% 30.04 in 10.0 mi South 4.6 mph - N/A   Clear
3:34 AM 37.4 °F 34.9 °F 26.6 °F 65% 30.04 in 10.0 mi South 3.5 mph - N/A   Clear
3:54 AM 37.4 °F - 26.6 °F 65% 30.04 in 10.0 mi Calm Calm - N/A   Clear
4:13 AM 39.2 °F 35.9 °F 26.6 °F 61% 30.03 in 10.0 mi South 4.6 mph - N/A   Clear
4:34 AM 41.0 °F 38.0 °F 26.6 °F 57% 30.02 in 10.0 mi South 4.6 mph - N/A   Clear
4:54 AM 41.0 °F 39.0 °F 26.6 °F 57% 30.02 in 10.0 mi South 3.5 mph - N/A   Clear
5:14 AM 41.0 °F - 26.6 °F 57% 30.02 in 10.0 mi Calm Calm - N/A   Clear
5:34 AM 41.0 °F - 26.6 °F 57% 30.02 in 10.0 mi Calm Calm - N/A   Clear
5:54 AM 42.8 °F - 26.6 °F 53% 30.02 in 10.0 mi Calm Calm - N/A   Clear
6:14 AM 42.8 °F - 26.6 °F 53% 30.02 in 10.0 mi Calm Calm - N/A   Clear
6:34 AM 44.6 °F 43.1 °F 26.6 °F 49% 30.02 in 10.0 mi West 3.5 mph - N/A   Clear
6:54 AM 44.6 °F 40.2 °F 28.4 °F 53% 30.02 in 10.0 mi West 8.1 mph - N/A   Clear
7:14 AM 44.6 °F 39.2 °F 30.2 °F 57% 30.02 in 10.0 mi WNW 10.4 mph - N/A   Clear
7:34 AM 46.4 °F 43.5 °F 32.0 °F 57% 30.03 in 10.0 mi NW 5.8 mph - N/A   Clear
7:53 AM 46.4 °F 41.9 °F 33.8 °F 62% 30.02 in 10.0 mi West 9.2 mph - N/A   Clear
8:14 AM 48.2 °F - 35.6 °F 62% 30.03 in 10.0 mi West 10.4 mph - N/A   Clear
8:33 AM 51.8 °F - 35.6 °F 54% 30.03 in 10.0 mi West 10.4 mph - N/A   Clear
8:54 AM 51.8 °F - 35.6 °F 54% 30.03 in 10.0 mi West 9.2 mph - N/A   Clear
9:14 AM 53.6 °F - 35.6 °F 51% 30.03 in 10.0 mi West 10.4 mph - N/A   Clear
9:33 AM 55.4 °F - 35.6 °F 47% 30.03 in 10.0 mi WNW 9.2 mph - N/A   Clear
9:54 AM 57.2 °F - 35.6 °F 44% 30.03 in 10.0 mi WNW 6.9 mph - N/A   Clear
10:13 AM 59.0 °F - 33.8 °F 39% 30.03 in 10.0 mi WNW 8.1 mph - N/A   Clear
10:34 AM 60.8 °F - 32.0 °F 34% 30.03 in 10.0 mi NNW 6.9 mph - N/A   Clear
10:54 AM 60.8 °F - 30.2 °F 31% 30.03 in 10.0 mi NNW 8.1 mph - N/A   Clear
11:13 AM 62.6 °F - 30.2 °F 30% 30.03 in 10.0 mi WNW 5.8 mph - N/A   Clear
11:34 AM 62.6 °F - 24.8 °F 24% 30.03 in 10.0 mi NW 10.4 mph - N/A   Clear
11:54 AM 64.4 °F - 24.8 °F 22% 30.03 in 10.0 mi West 8.1 mph - N/A   Clear
12:13 PM 64.4 °F - 23.0 °F 21% 30.03 in 10.0 mi NNW 3.5 mph - N/A   Clear
12:34 PM 64.4 °F - 21.2 °F 19% 30.02 in 10.0 mi WNW 3.5 mph - N/A   Clear
12:54 PM 66.2 °F - 21.2 °F 18% 30.02 in 10.0 mi WNW 5.8 mph - N/A   Clear
1:13 PM 64.4 °F - 21.2 °F 19% 30.01 in 10.0 mi WSW 6.9 mph - N/A   Clear
1:34 PM 66.2 °F - 21.2 °F 18% 30.01 in 10.0 mi Calm Calm - N/A   Clear
1:54 PM 66.2 °F - 24.8 °F 21% 30.01 in 10.0 mi WSW 5.8 mph - N/A   Clear
2:13 PM 68.0 °F - 23.0 °F 18% 30.00 in 10.0 mi WNW 6.9 mph - N/A   Clear
2:34 PM 68.0 °F - 24.8 °F 20% 30.00 in 10.0 mi NW 5.8 mph - N/A   Clear
2:53 PM 66.2 °F - 23.0 °F 19% 30.00 in 10.0 mi NW 3.5 mph - N/A   Clear
3:14 PM 66.2 °F - 24.8 °F 21% 30.00 in 10.0 mi NW 5.8 mph - N/A   Clear
3:34 PM 68.0 °F - 23.0 °F 18% 29.99 in 10.0 mi North 3.5 mph - N/A   Clear
3:54 PM 66.2 °F - 24.8 °F 21% 29.99 in 10.0 mi Calm Calm - N/A   Clear
4:14 PM 68.0 °F - 23.0 °F 18% 29.98 in 10.0 mi West 6.9 mph - N/A   Clear
4:34 PM 68.0 °F - 23.0 °F 18% 29.98 in 10.0 mi NNW 9.2 mph - N/A   Clear
4:53 PM 69.8 °F - 24.8 °F 18% 29.98 in 10.0 mi West 4.6 mph - N/A   Clear
5:14 PM 68.0 °F - 23.0 °F 18% 29.98 in 10.0 mi SW 10.4 mph - N/A   Clear
5:34 PM 69.8 °F - 21.2 °F 16% 29.98 in 10.0 mi West 11.5 mph - N/A   Clear
5:54 PM 69.8 °F - 21.2 °F 16% 29.97 in 10.0 mi WSW 12.7 mph - N/A   Clear
6:13 PM 68.0 °F - 21.2 °F 17% 29.97 in 10.0 mi NW 4.6 mph - N/A   Clear
6:34 PM 69.8 °F - 17.6 °F 14% 29.97 in 10.0 mi West 6.9 mph - N/A   Clear
6:54 PM 68.0 °F - 19.4 °F 16% 29.97 in 10.0 mi WNW 8.1 mph - N/A   Clear
7:13 PM 68.0 °F - 21.2 °F 17% 29.97 in 10.0 mi West 4.6 mph - N/A   Clear
7:34 PM 66.2 °F - 19.4 °F 17% 29.97 in 10.0 mi Calm Calm - N/A   Clear
7:53 PM 66.2 °F - 23.0 °F 19% 29.97 in 7.0 mi West 4.6 mph - N/A   Clear
8:14 PM 64.4 °F - 26.6 °F 24% 29.98 in 10.0 mi West 3.5 mph - N/A   Clear
8:34 PM 64.4 °F - 24.8 °F 22% 29.98 in 10.0 mi WSW 3.5 mph - N/A   Clear
8:53 PM 62.6 °F - 24.8 °F 24% 29.98 in 10.0 mi Calm Calm - N/A   Clear
9:14 PM 62.6 °F - 26.6 °F 26% 29.98 in 10.0 mi Calm Calm - N/A   Clear
9:33 PM 60.8 °F - 28.4 °F 29% 29.98 in 10.0 mi SW 3.5 mph - N/A   Clear
9:54 PM 57.2 °F - 32.0 °F 38% 29.99 in 10.0 mi Calm Calm - N/A   Clear
10:14 PM 57.2 °F - 33.8 °F 41% 29.99 in 10.0 mi SW 5.8 mph - N/A   Clear
10:33 PM 55.4 °F - 33.8 °F 44% 30.00 in 10.0 mi SW 4.6 mph - N/A   Clear
10:54 PM 55.4 °F - 33.8 °F 44% 30.00 in 10.0 mi SW 3.5 mph - N/A   Clear
11:14 PM 53.6 °F - 33.8 °F 47% 30.00 in 10.0 mi SW 3.5 mph - N/A   Clear
11:33 PM 53.6 °F - 33.8 °F 47% 30.00 in 10.0 mi SW 4.6 mph - N/A   Clear
11:54 PM 51.8 °F - 32.0 °F 47% 30.00 in 10.0 mi SW 4.6 mph - N/A   Clear